owner,sensor,date,latitude,longitude,air_temperature,qcFlag 
COMPS,ioos:station:USF.COMPS:EGK:1,2010-12-01T00:00:00Z,27.6010,-82.7510,23.2,1111122 
COMPS,ioos:station:USF.COMPS:EGK:1,2010-12-01T00:06:00Z,27.6010,-82.7510,23.24,1111122 
COMPS,ioos:station:USF.COMPS:EGK:1,2010-12-01T00:12:00Z,27.6010,-82.7510,23.22,1111122 
COMPS,ioos:station:USF.COMPS:EGK:1,2010-12-01T00:18:00Z,27.6010,-82.7510,23.19,1111122 
COMPS,ioos:station:USF.COMPS:EGK:1,2010-12-01T00:24:00Z,27.6010,-82.7510,23.19,1111122 
COMPS,ioos:station:USF.COMPS:EGK:1,2010-12-01T00:30:00Z,27.6010,-82.7510,23.19,1111122 
COMPS,ioos:station:USF.COMPS:EGK:1,2010-12-01T00:36:00Z,27.6010,-82.7510,23.19,1111122 
COMPS,ioos:station:USF.COMPS:EGK:1,2010-12-01T00:42:00Z,27.6010,-82.7510,23.21,1111122 
COMPS,ioos:station:USF.COMPS:EGK:1,2010-12-01T00:48:00Z,27.6010,-82.7510,23.19,1111122 
COMPS,ioos:station:USF.COMPS:EGK:1,2010-12-01T00:54:00Z,27.6010,-82.7510,23.32,1111122 
COMPS,ioos:station:USF.COMPS:EGK:1,2010-12-01T01:00:00Z,27.6010,-82.7510,23.3,1111122 
COMPS,ioos:station:USF.COMPS:EGK:1,2010-12-01T01:06:00Z,27.6010,-82.7510,23.19,1111122 
COMPS,ioos:station:USF.COMPS:EGK:1,2010-12-01T01:12:00Z,27.6010,-82.7510,23.18,1111122 
COMPS,ioos:station:USF.COMPS:EGK:1,2010-12-01T01:18:00Z,27.6010,-82.7510,23.06,1111122 
COMPS,ioos:station:USF.COMPS:EGK:1,2010-12-01T01:24:00Z,27.6010,-82.7510,23.06,1111122 
COMPS,ioos:station:USF.COMPS:EGK:1,2010-12-01T01:30:00Z,27.6010,-82.7510,23.06,1111122 
COMPS,ioos:station:USF.COMPS:EGK:1,2010-12-01T01:36:00Z,27.6010,-82.7510,23.06,1111122 
COMPS,ioos:station:USF.COMPS:EGK:1,2010-12-01T01:42:00Z,27.6010,-82.7510,23.06,1111122 
COMPS,ioos:station:USF.COMPS:EGK:1,2010-12-01T01:48:00Z,27.6010,-82.7510,23.03,1111122 
COMPS,ioos:station:USF.COMPS:EGK:1,2010-12-01T01:54:00Z,27.6010,-82.7510,23.08,1111122 
COMPS,ioos:station:USF.COMPS:EGK:1,2010-12-01T02:00:00Z,27.6010,-82.7510,23.1,1111122 
COMPS,ioos:station:USF.COMPS:EGK:1,2010-12-01T02:06:00Z,27.6010,-82.7510,23.19,1111122 
COMPS,ioos:station:USF.COMPS:EGK:1,2010-12-01T02:12:00Z,27.6010,-82.7510,23.19,1111122 
COMPS,ioos:station:USF.COMPS:EGK:1,2010-12-01T02:18:00Z,27.6010,-82.7510,23.18,1111122 
COMPS,ioos:station:USF.COMPS:EGK:1,2010-12-01T02:24:00Z,27.6010,-82.7510,23.18,1111122 
COMPS,ioos:station:USF.COMPS:EGK:1,2010-12-01T02:30:00Z,27.6010,-82.7510,23.08,1111122 
COMPS,ioos:station:USF.COMPS:EGK:1,2010-12-01T02:36:00Z,27.6010,-82.7510,23.07,1111122 
COMPS,ioos:station:USF.COMPS:EGK:1,2010-12-01T02:42:00Z,27.6010,-82.7510,23.23,1111122 
COMPS,ioos:station:USF.COMPS:EGK:1,2010-12-01T02:48:00Z,27.6010,-82.7510,23.39,1111122 
COMPS,ioos:station:USF.COMPS:EGK:1,2010-12-01T02:54:00Z,27.6010,-82.7510,23.49,1111122 
COMPS,ioos:station:USF.COMPS:EGK:1,2010-12-01T03:00:00Z,27.6010,-82.7510,23.5,1111122 
COMPS,ioos:station:USF.COMPS:EGK:1,2010-12-01T13:00:00Z,27.6010,-82.7510,18.72,1111122 
COMPS,ioos:station:USF.COMPS:EGK:1,2010-12-01T13:06:00Z,27.6010,-82.7510,18.51,1111122 
COMPS,ioos:station:USF.COMPS:EGK:1,2010-12-01T13:12:00Z,27.6010,-82.7510,18.46,1111122 
COMPS,ioos:station:USF.COMPS:EGK:1,2010-12-01T13:18:00Z,27.6010,-82.7510,18.35,1111122 
COMPS,ioos:station:USF.COMPS:EGK:1,2010-12-01T13:24:00Z,27.6010,-82.7510,18.36,1111122 
COMPS,ioos:station:USF.COMPS:EGK:1,2010-12-01T13:30:00Z,27.6010,-82.7510,18.3,1111122 
COMPS,ioos:station:USF.COMPS:EGK:1,2010-12-01T13:36:00Z,27.6010,-82.7510,18.21,1111122 
COMPS,ioos:station:USF.COMPS:EGK:1,2010-12-01T13:42:00Z,27.6010,-82.7510,18.17,1111122 
COMPS,ioos:station:USF.COMPS:EGK:1,2010-12-01T13:48:00Z,27.6010,-82.7510,18.05,1111122 
COMPS,ioos:station:USF.COMPS:EGK:1,2010-12-01T13:54:00Z,27.6010,-82.7510,17.96,1111122 
COMPS,ioos:station:USF.COMPS:EGK:1,2010-12-01T14:00:00Z,27.6010,-82.7510,18.0,1111122 
COMPS,ioos:station:USF.COMPS:EGK:1,2010-12-01T14:06:00Z,27.6010,-82.7510,17.63,1111122 
COMPS,ioos:station:USF.COMPS:EGK:1,2010-12-01T14:12:00Z,27.6010,-82.7510,17.72,1111122 
COMPS,ioos:station:USF.COMPS:EGK:1,2010-12-01T14:18:00Z,27.6010,-82.7510,17.62,1111122 
COMPS,ioos:station:USF.COMPS:EGK:1,2010-12-01T14:24:00Z,27.6010,-82.7510,17.66,1111122 
COMPS,ioos:station:USF.COMPS:EGK:1,2010-12-01T14:30:00Z,27.6010,-82.7510,17.51,1111122 
COMPS,ioos:station:USF.COMPS:EGK:1,2010-12-01T14:36:00Z,27.6010,-82.7510,17.47,1111122 
COMPS,ioos:station:USF.COMPS:EGK:1,2010-12-01T14:42:00Z,27.6010,-82.7510,17.41,1111122 
COMPS,ioos:station:USF.COMPS:EGK:1,2010-12-01T14:48:00Z,27.6010,-82.7510,17.28,1111122 
COMPS,ioos:station:USF.COMPS:EGK:1,2010-12-01T14:54:00Z,27.6010,-82.7510,17.46,1111122 
COMPS,ioos:station:USF.COMPS:EGK:1,2010-12-01T15:00:00Z,27.6010,-82.7510,17.5,1111122 
COMPS,ioos:station:USF.COMPS:EGK:1,2010-12-01T15:06:00Z,27.6010,-82.7510,17.5,1111122 
COMPS,ioos:station:USF.COMPS:EGK:1,2010-12-01T15:12:00Z,27.6010,-82.7510,17.37,1111122 
COMPS,ioos:station:USF.COMPS:EGK:1,2010-12-01T15:18:00Z,27.6010,-82.7510,17.33,1111122 
COMPS,ioos:station:USF.COMPS:EGK:1,2010-12-01T15:24:00Z,27.6010,-82.7510,17.19,1111122 
COMPS,ioos:station:USF.COMPS:EGK:1,2010-12-01T15:30:00Z,27.6010,-82.7510,17.26,1111122 
COMPS,ioos:station:USF.COMPS:EGK:1,2010-12-01T15:36:00Z,27.6010,-82.7510,17.17,1111122 
COMPS,ioos:station:USF.COMPS:EGK:1,2010-12-01T15:42:00Z,27.6010,-82.7510,16.97,1111122 
COMPS,ioos:station:USF.COMPS:EGK:1,2010-12-01T15:48:00Z,27.6010,-82.7510,16.8,1111122 
COMPS,ioos:station:USF.COMPS:EGK:1,2010-12-01T15:54:00Z,27.6010,-82.7510,16.54,1111122 
COMPS,ioos:station:USF.COMPS:EGK:1,2010-12-01T16:00:00Z,27.6010,-82.7510,16.5,1111122 
COMPS,ioos:station:USF.COMPS:EGK:1,2010-12-01T16:06:00Z,27.6010,-82.7510,16.35,1111122 
COMPS,ioos:station:USF.COMPS:EGK:1,2010-12-01T16:12:00Z,27.6010,-82.7510,16.23,1111122 
COMPS,ioos:station:USF.COMPS:EGK:1,2010-12-01T16:18:00Z,27.6010,-82.7510,16.14,1111122 
COMPS,ioos:station:USF.COMPS:EGK:1,2010-12-01T16:24:00Z,27.6010,-82.7510,16.07,1111122 
COMPS,ioos:station:USF.COMPS:EGK:1,2010-12-01T16:30:00Z,27.6010,-82.7510,15.87,1111122 
COMPS,ioos:station:USF.COMPS:EGK:1,2010-12-01T16:36:00Z,27.6010,-82.7510,15.88,1111122 
COMPS,ioos:station:USF.COMPS:EGK:1,2010-12-01T16:42:00Z,27.6010,-82.7510,15.36,1111122 
COMPS,ioos:station:USF.COMPS:EGK:1,2010-12-01T16:48:00Z,27.6010,-82.7510,15.06,1111122 
COMPS,ioos:station:USF.COMPS:EGK:1,2010-12-01T16:54:00Z,27.6010,-82.7510,15.04,1111122 
COMPS,ioos:station:USF.COMPS:EGK:1,2010-12-01T17:00:00Z,27.6010,-82.7510,15.0,1111122 
COMPS,ioos:station:USF.COMPS:EGK:1,2010-12-01T17:06:00Z,27.6010,-82.7510,14.96,1111122 
COMPS,ioos:station:USF.COMPS:EGK:1,2010-12-01T17:12:00Z,27.6010,-82.7510,14.84,1111122 
COMPS,ioos:station:USF.COMPS:EGK:1,2010-12-01T17:18:00Z,27.6010,-82.7510,14.81,1111122 
COMPS,ioos:station:USF.COMPS:EGK:1,2010-12-01T17:24:00Z,27.6010,-82.7510,14.52,1111122 
COMPS,ioos:station:USF.COMPS:EGK:1,2010-12-01T17:30:00Z,27.6010,-82.7510,14.62,1111122 
COMPS,ioos:station:USF.COMPS:EGK:1,2010-12-01T17:36:00Z,27.6010,-82.7510,14.67,1111122 
COMPS,ioos:station:USF.COMPS:EGK:1,2010-12-01T17:42:00Z,27.6010,-82.7510,14.68,1111122 
COMPS,ioos:station:USF.COMPS:EGK:1,2010-12-01T17:48:00Z,27.6010,-82.7510,14.77,1111122 
COMPS,ioos:station:USF.COMPS:EGK:1,2010-12-01T17:54:00Z,27.6010,-82.7510,14.7,1111122 
COMPS,ioos:station:USF.COMPS:EGK:1,2010-12-01T18:00:00Z,27.6010,-82.7510,14.7,1111122 
COMPS,ioos:station:USF.COMPS:EGK:1,2010-12-01T18:06:00Z,27.6010,-82.7510,14.7,1111122 
COMPS,ioos:station:USF.COMPS:EGK:1,2010-12-01T18:12:00Z,27.6010,-82.7510,14.78,1111122 
COMPS,ioos:station:USF.COMPS:EGK:1,2010-12-01T18:18:00Z,27.6010,-82.7510,14.85,1111122 
COMPS,ioos:station:USF.COMPS:EGK:1,2010-12-01T18:24:00Z,27.6010,-82.7510,14.8,1111122 
COMPS,ioos:station:USF.COMPS:EGK:1,2010-12-01T18:30:00Z,27.6010,-82.7510,14.93,1111122 
COMPS,ioos:station:USF.COMPS:EGK:1,2010-12-01T18:36:00Z,27.6010,-82.7510,14.9,1111122 
COMPS,ioos:station:USF.COMPS:EGK:1,2010-12-01T18:42:00Z,27.6010,-82.7510,14.95,1111122 
COMPS,ioos:station:USF.COMPS:EGK:1,2010-12-01T18:48:00Z,27.6010,-82.7510,14.89,1111122 
COMPS,ioos:station:USF.COMPS:EGK:1,2010-12-01T18:54:00Z,27.6010,-82.7510,14.82,1111122 
COMPS,ioos:station:USF.COMPS:EGK:1,2010-12-01T19:00:00Z,27.6010,-82.7510,14.8,1111122 
COMPS,ioos:station:USF.COMPS:EGK:1,2010-12-01T19:06:00Z,27.6010,-82.7510,14.87,1111122 
COMPS,ioos:station:USF.COMPS:EGK:1,2010-12-01T19:12:00Z,27.6010,-82.7510,15.14,1111122 
COMPS,ioos:station:USF.COMPS:EGK:1,2010-12-01T19:18:00Z,27.6010,-82.7510,15.1,1111122 
COMPS,ioos:station:USF.COMPS:EGK:1,2010-12-01T19:24:00Z,27.6010,-82.7510,15.1,1111122 
COMPS,ioos:station:USF.COMPS:EGK:1,2010-12-01T19:30:00Z,27.6010,-82.7510,15.22,1111122 
COMPS,ioos:station:USF.COMPS:EGK:1,2010-12-01T19:36:00Z,27.6010,-82.7510,15.18,1111122 
COMPS,ioos:station:USF.COMPS:EGK:1,2010-12-01T19:42:00Z,27.6010,-82.7510,15.39,1111122 
COMPS,ioos:station:USF.COMPS:EGK:1,2010-12-01T19:48:00Z,27.6010,-82.7510,15.53,1111122 
COMPS,ioos:station:USF.COMPS:EGK:1,2010-12-01T19:54:00Z,27.6010,-82.7510,15.54,1111122 
COMPS,ioos:station:USF.COMPS:EGK:1,2010-12-01T20:00:00Z,27.6010,-82.7510,15.5,1111122 
COMPS,ioos:station:USF.COMPS:EGK:1,2010-12-01T20:06:00Z,27.6010,-82.7510,15.58,1111122 
COMPS,ioos:station:USF.COMPS:EGK:1,2010-12-01T20:12:00Z,27.6010,-82.7510,15.63,1111122 
COMPS,ioos:station:USF.COMPS:EGK:1,2010-12-01T20:18:00Z,27.6010,-82.7510,15.61,1111122 
COMPS,ioos:station:USF.COMPS:EGK:1,2010-12-01T20:24:00Z,27.6010,-82.7510,15.61,1111122 
COMPS,ioos:station:USF.COMPS:EGK:1,2010-12-01T20:30:00Z,27.6010,-82.7510,15.54,1111122 
COMPS,ioos:station:USF.COMPS:EGK:1,2010-12-01T20:36:00Z,27.6010,-82.7510,15.68,1111122 
COMPS,ioos:station:USF.COMPS:EGK:1,2010-12-01T20:42:00Z,27.6010,-82.7510,15.83,1111122 
COMPS,ioos:station:USF.COMPS:EGK:1,2010-12-01T20:48:00Z,27.6010,-82.7510,15.7,1111122 
COMPS,ioos:station:USF.COMPS:EGK:1,2010-12-01T20:54:00Z,27.6010,-82.7510,15.74,1111122 
COMPS,ioos:station:USF.COMPS:EGK:1,2010-12-01T21:00:00Z,27.6010,-82.7510,15.7,1111122 
COMPS,ioos:station:USF.COMPS:EGK:1,2010-12-01T21:06:00Z,27.6010,-82.7510,15.53,1111122 
COMPS,ioos:station:USF.COMPS:EGK:1,2010-12-01T21:12:00Z,27.6010,-82.7510,15.57,1111122 
COMPS,ioos:station:USF.COMPS:EGK:1,2010-12-01T21:18:00Z,27.6010,-82.7510,15.52,1111122 
COMPS,ioos:station:USF.COMPS:EGK:1,2010-12-01T21:24:00Z,27.6010,-82.7510,15.54,1111122 
COMPS,ioos:station:USF.COMPS:EGK:1,2010-12-01T21:30:00Z,27.6010,-82.7510,15.53,1111122 
COMPS,ioos:station:USF.COMPS:EGK:1,2010-12-01T21:36:00Z,27.6010,-82.7510,15.54,1111122 
COMPS,ioos:station:USF.COMPS:EGK:1,2010-12-01T21:42:00Z,27.6010,-82.7510,15.55,1111122 
COMPS,ioos:station:USF.COMPS:EGK:1,2010-12-01T21:48:00Z,27.6010,-82.7510,15.65,1111122 
COMPS,ioos:station:USF.COMPS:EGK:1,2010-12-01T21:54:00Z,27.6010,-82.7510,15.55,1111122 
COMPS,ioos:station:USF.COMPS:EGK:1,2010-12-01T22:00:00Z,27.6010,-82.7510,15.6,1111122 
COMPS,ioos:station:USF.COMPS:EGK:1,2010-12-01T22:06:00Z,27.6010,-82.7510,15.64,1111122 
COMPS,ioos:station:USF.COMPS:EGK:1,2010-12-01T22:12:00Z,27.6010,-82.7510,15.6,1111122 
COMPS,ioos:station:USF.COMPS:EGK:1,2010-12-01T22:18:00Z,27.6010,-82.7510,15.54,1111122 
COMPS,ioos:station:USF.COMPS:EGK:1,2010-12-01T22:24:00Z,27.6010,-82.7510,15.69,1111122 
COMPS,ioos:station:USF.COMPS:EGK:1,2010-12-01T22:30:00Z,27.6010,-82.7510,15.6,1111122 
COMPS,ioos:station:USF.COMPS:EGK:1,2010-12-01T22:36:00Z,27.6010,-82.7510,15.47,1111122 
COMPS,ioos:station:USF.COMPS:EGK:1,2010-12-01T22:42:00Z,27.6010,-82.7510,15.43,1111122 
COMPS,ioos:station:USF.COMPS:EGK:1,2010-12-01T22:48:00Z,27.6010,-82.7510,15.46,1111122 
COMPS,ioos:station:USF.COMPS:EGK:1,2010-12-01T22:54:00Z,27.6010,-82.7510,15.59,1111122 
COMPS,ioos:station:USF.COMPS:EGK:1,2010-12-01T23:00:00Z,27.6010,-82.7510,15.6,1111122 
COMPS,ioos:station:USF.COMPS:EGK:1,2010-12-01T23:06:00Z,27.6010,-82.7510,15.53,1111122 
COMPS,ioos:station:USF.COMPS:EGK:1,2010-12-01T23:12:00Z,27.6010,-82.7510,15.56,1111122 
COMPS,ioos:station:USF.COMPS:EGK:1,2010-12-01T23:18:00Z,27.6010,-82.7510,15.41,1111122 
COMPS,ioos:station:USF.COMPS:EGK:1,2010-12-01T23:24:00Z,27.6010,-82.7510,15.52,1111122 
COMPS,ioos:station:USF.COMPS:EGK:1,2010-12-01T23:30:00Z,27.6010,-82.7510,15.5,1111122 
COMPS,ioos:station:USF.COMPS:EGK:1,2010-12-01T23:36:00Z,27.6010,-82.7510,15.49,1111122 
COMPS,ioos:station:USF.COMPS:EGK:1,2010-12-01T23:42:00Z,27.6010,-82.7510,15.53,1111122 
COMPS,ioos:station:USF.COMPS:EGK:1,2010-12-01T23:48:00Z,27.6010,-82.7510,15.36,1111122 
COMPS,ioos:station:USF.COMPS:EGK:1,2010-12-01T23:54:00Z,27.6010,-82.7510,15.41,1111122 
COMPS,ioos:station:USF.COMPS:EGK:1,2010-12-02T00:00:00Z,27.6010,-82.7510,15.4,1111122 
COMPS,ioos:station:USF.COMPS:EGK:1,2010-12-02T00:06:00Z,27.6010,-82.7510,15.43,1111122 
COMPS,ioos:station:USF.COMPS:EGK:1,2010-12-02T00:12:00Z,27.6010,-82.7510,15.32,1111122 
COMPS,ioos:station:USF.COMPS:EGK:1,2010-12-02T00:18:00Z,27.6010,-82.7510,15.35,1111122 
COMPS,ioos:station:USF.COMPS:EGK:1,2010-12-02T00:24:00Z,27.6010,-82.7510,15.33,1111122 
COMPS,ioos:station:USF.COMPS:EGK:1,2010-12-02T00:30:00Z,27.6010,-82.7510,15.25,1111122 
COMPS,ioos:station:USF.COMPS:EGK:1,2010-12-02T00:36:00Z,27.6010,-82.7510,15.19,1111122 
COMPS,ioos:station:USF.COMPS:EGK:1,2010-12-02T00:42:00Z,27.6010,-82.7510,15.15,1111122 
COMPS,ioos:station:USF.COMPS:EGK:1,2010-12-02T00:48:00Z,27.6010,-82.7510,15.2,1111122 
COMPS,ioos:station:USF.COMPS:EGK:1,2010-12-02T00:54:00Z,27.6010,-82.7510,15.23,1111122 
COMPS,ioos:station:USF.COMPS:EGK:1,2010-12-02T01:00:00Z,27.6010,-82.7510,15.2,1111122 
COMPS,ioos:station:USF.COMPS:EGK:1,2010-12-02T01:06:00Z,27.6010,-82.7510,15.11,1111122 
COMPS,ioos:station:USF.COMPS:EGK:1,2010-12-02T01:12:00Z,27.6010,-82.7510,15.04,1111122 
COMPS,ioos:station:USF.COMPS:EGK:1,2010-12-02T01:18:00Z,27.6010,-82.7510,14.93,1111122 
COMPS,ioos:station:USF.COMPS:EGK:1,2010-12-02T01:24:00Z,27.6010,-82.7510,14.84,1111122 
COMPS,ioos:station:USF.COMPS:EGK:1,2010-12-02T01:30:00Z,27.6010,-82.7510,14.85,1111122 
COMPS,ioos:station:USF.COMPS:EGK:1,2010-12-02T01:36:00Z,27.6010,-82.7510,14.89,1111122 
COMPS,ioos:station:USF.COMPS:EGK:1,2010-12-02T01:42:00Z,27.6010,-82.7510,14.86,1111122 
COMPS,ioos:station:USF.COMPS:EGK:1,2010-12-02T01:48:00Z,27.6010,-82.7510,14.89,1111122 
COMPS,ioos:station:USF.COMPS:EGK:1,2010-12-02T01:54:00Z,27.6010,-82.7510,14.81,1111122 
COMPS,ioos:station:USF.COMPS:EGK:1,2010-12-02T02:00:00Z,27.6010,-82.7510,14.8,1111122 
COMPS,ioos:station:USF.COMPS:EGK:1,2010-12-02T02:06:00Z,27.6010,-82.7510,14.75,1111122 
COMPS,ioos:station:USF.COMPS:EGK:1,2010-12-02T02:12:00Z,27.6010,-82.7510,14.85,1111122 
COMPS,ioos:station:USF.COMPS:EGK:1,2010-12-02T02:18:00Z,27.6010,-82.7510,14.85,1111122 
COMPS,ioos:station:USF.COMPS:EGK:1,2010-12-02T02:24:00Z,27.6010,-82.7510,14.9,1111122 
COMPS,ioos:station:USF.COMPS:EGK:1,2010-12-02T02:30:00Z,27.6010,-82.7510,14.75,1111122 
COMPS,ioos:station:USF.COMPS:EGK:1,2010-12-02T02:36:00Z,27.6010,-82.7510,14.67,1111122 
COMPS,ioos:station:USF.COMPS:EGK:1,2010-12-02T02:42:00Z,27.6010,-82.7510,14.82,1111122 
COMPS,ioos:station:USF.COMPS:EGK:1,2010-12-02T02:48:00Z,27.6010,-82.7510,14.71,1111122 
COMPS,ioos:station:USF.COMPS:EGK:1,2010-12-02T02:54:00Z,27.6010,-82.7510,14.75,1111122 
COMPS,ioos:station:USF.COMPS:EGK:1,2010-12-02T03:00:00Z,27.6010,-82.7510,14.8,1111122 
COMPS,ioos:station:USF.COMPS:EGK:1,2010-12-02T11:00:00Z,27.6010,-82.7510,9.2,1111122 
COMPS,ioos:station:USF.COMPS:EGK:1,2010-12-02T11:06:00Z,27.6010,-82.7510,9.23,1111122 
COMPS,ioos:station:USF.COMPS:EGK:1,2010-12-02T11:12:00Z,27.6010,-82.7510,9.33,1111122 
COMPS,ioos:station:USF.COMPS:EGK:1,2010-12-02T11:18:00Z,27.6010,-82.7510,9.29,1111122 
COMPS,ioos:station:USF.COMPS:EGK:1,2010-12-02T11:24:00Z,27.6010,-82.7510,9.19,1111122 
COMPS,ioos:station:USF.COMPS:EGK:1,2010-12-02T11:30:00Z,27.6010,-82.7510,9.38,1111122 
COMPS,ioos:station:USF.COMPS:EGK:1,2010-12-02T11:36:00Z,27.6010,-82.7510,9.23,1111122 
COMPS,ioos:station:USF.COMPS:EGK:1,2010-12-02T11:42:00Z,27.6010,-82.7510,9.32,1111122 
COMPS,ioos:station:USF.COMPS:EGK:1,2010-12-02T11:48:00Z,27.6010,-82.7510,9.1,1111122 
COMPS,ioos:station:USF.COMPS:EGK:1,2010-12-02T11:54:00Z,27.6010,-82.7510,9.23,1111122 
COMPS,ioos:station:USF.COMPS:EGK:1,2010-12-02T12:00:00Z,27.6010,-82.7510,9.2,1111122 
COMPS,ioos:station:USF.COMPS:EGK:1,2010-12-02T12:06:00Z,27.6010,-82.7510,9.31,1111122 
COMPS,ioos:station:USF.COMPS:EGK:1,2010-12-02T12:12:00Z,27.6010,-82.7510,9.35,1111122 
COMPS,ioos:station:USF.COMPS:EGK:1,2010-12-02T12:18:00Z,27.6010,-82.7510,9.17,1111122 
COMPS,ioos:station:USF.COMPS:EGK:1,2010-12-02T12:24:00Z,27.6010,-82.7510,9.16,1111122 
COMPS,ioos:station:USF.COMPS:EGK:1,2010-12-02T12:30:00Z,27.6010,-82.7510,9.32,1111122 
COMPS,ioos:station:USF.COMPS:EGK:1,2010-12-02T12:36:00Z,27.6010,-82.7510,9.36,1111122 
COMPS,ioos:station:USF.COMPS:EGK:1,2010-12-02T12:42:00Z,27.6010,-82.7510,9.53,1111122 
COMPS,ioos:station:USF.COMPS:EGK:1,2010-12-02T12:48:00Z,27.6010,-82.7510,9.47,1111122 
COMPS,ioos:station:USF.COMPS:EGK:1,2010-12-02T12:54:00Z,27.6010,-82.7510,9.56,1111122 
COMPS,ioos:station:USF.COMPS:EGK:1,2010-12-02T13:00:00Z,27.6010,-82.7510,9.6,1111122 
COMPS,ioos:station:USF.COMPS:EGK:1,2010-12-02T13:06:00Z,27.6010,-82.7510,9.52,1111122 
COMPS,ioos:station:USF.COMPS:EGK:1,2010-12-02T13:12:00Z,27.6010,-82.7510,9.46,1111122 
COMPS,ioos:station:USF.COMPS:EGK:1,2010-12-02T13:18:00Z,27.6010,-82.7510,9.66,1111122 
COMPS,ioos:station:USF.COMPS:EGK:1,2010-12-02T13:24:00Z,27.6010,-82.7510,9.67,1111122 
COMPS,ioos:station:USF.COMPS:EGK:1,2010-12-02T13:30:00Z,27.6010,-82.7510,9.79,1111122 
COMPS,ioos:station:USF.COMPS:EGK:1,2010-12-02T13:36:00Z,27.6010,-82.7510,9.75,1111122 
COMPS,ioos:station:USF.COMPS:EGK:1,2010-12-02T13:42:00Z,27.6010,-82.7510,9.76,1111122 
COMPS,ioos:station:USF.COMPS:EGK:1,2010-12-02T13:48:00Z,27.6010,-82.7510,9.84,1111122 
COMPS,ioos:station:USF.COMPS:EGK:1,2010-12-02T13:54:00Z,27.6010,-82.7510,9.92,1111122 
COMPS,ioos:station:USF.COMPS:EGK:1,2010-12-02T14:00:00Z,27.6010,-82.7510,9.9,1111122 
COMPS,ioos:station:USF.COMPS:EGK:1,2010-12-02T14:06:00Z,27.6010,-82.7510,10.13,1111122 
COMPS,ioos:station:USF.COMPS:EGK:1,2010-12-02T14:12:00Z,27.6010,-82.7510,10.24,1111122 
COMPS,ioos:station:USF.COMPS:EGK:1,2010-12-02T14:18:00Z,27.6010,-82.7510,10.0,1111122 
COMPS,ioos:station:USF.COMPS:EGK:1,2010-12-02T14:24:00Z,27.6010,-82.7510,10.17,1111122 
COMPS,ioos:station:USF.COMPS:EGK:1,2010-12-02T14:30:00Z,27.6010,-82.7510,10.39,1111122 
COMPS,ioos:station:USF.COMPS:EGK:1,2010-12-02T14:36:00Z,27.6010,-82.7510,10.42,1111122 
COMPS,ioos:station:USF.COMPS:EGK:1,2010-12-02T14:42:00Z,27.6010,-82.7510,10.27,1111122 
COMPS,ioos:station:USF.COMPS:EGK:1,2010-12-02T14:48:00Z,27.6010,-82.7510,10.5,1111122 
COMPS,ioos:station:USF.COMPS:EGK:1,2010-12-02T14:54:00Z,27.6010,-82.7510,10.45,1111122 
COMPS,ioos:station:USF.COMPS:EGK:1,2010-12-02T15:00:00Z,27.6010,-82.7510,10.5,1111122 
COMPS,ioos:station:USF.COMPS:EGK:1,2010-12-02T15:06:00Z,27.6010,-82.7510,10.62,1111122 
COMPS,ioos:station:USF.COMPS:EGK:1,2010-12-02T15:12:00Z,27.6010,-82.7510,10.53,1111122 
COMPS,ioos:station:USF.COMPS:EGK:1,2010-12-02T15:18:00Z,27.6010,-82.7510,10.63,1111122 
COMPS,ioos:station:USF.COMPS:EGK:1,2010-12-02T15:24:00Z,27.6010,-82.7510,10.63,1111122 
COMPS,ioos:station:USF.COMPS:EGK:1,2010-12-02T15:30:00Z,27.6010,-82.7510,10.85,1111122 
COMPS,ioos:station:USF.COMPS:EGK:1,2010-12-02T15:36:00Z,27.6010,-82.7510,10.85,1111122 
COMPS,ioos:station:USF.COMPS:EGK:1,2010-12-02T15:42:00Z,27.6010,-82.7510,10.95,1111122 
COMPS,ioos:station:USF.COMPS:EGK:1,2010-12-02T15:48:00Z,27.6010,-82.7510,11.13,1111122 
COMPS,ioos:station:USF.COMPS:EGK:1,2010-12-02T15:54:00Z,27.6010,-82.7510,11.02,1111122 
COMPS,ioos:station:USF.COMPS:EGK:1,2010-12-02T16:00:00Z,27.6010,-82.7510,11.0,1111122 
COMPS,ioos:station:USF.COMPS:EGK:1,2010-12-02T17:00:00Z,27.6010,-82.7510,11.9,1111122 
COMPS,ioos:station:USF.COMPS:EGK:1,2010-12-02T17:06:00Z,27.6010,-82.7510,11.98,1111122 
COMPS,ioos:station:USF.COMPS:EGK:1,2010-12-02T17:12:00Z,27.6010,-82.7510,12.05,1111122 
COMPS,ioos:station:USF.COMPS:EGK:1,2010-12-02T17:18:00Z,27.6010,-82.7510,12.15,1111122 
COMPS,ioos:station:USF.COMPS:EGK:1,2010-12-02T17:24:00Z,27.6010,-82.7510,12.29,1111122 
COMPS,ioos:station:USF.COMPS:EGK:1,2010-12-02T17:30:00Z,27.6010,-82.7510,12.29,1111122 
COMPS,ioos:station:USF.COMPS:EGK:1,2010-12-02T17:36:00Z,27.6010,-82.7510,12.41,1111122 
COMPS,ioos:station:USF.COMPS:EGK:1,2010-12-02T17:42:00Z,27.6010,-82.7510,12.41,1111122 
COMPS,ioos:station:USF.COMPS:EGK:1,2010-12-02T17:48:00Z,27.6010,-82.7510,12.65,1111122 
COMPS,ioos:station:USF.COMPS:EGK:1,2010-12-02T17:54:00Z,27.6010,-82.7510,12.63,1111122 
COMPS,ioos:station:USF.COMPS:EGK:1,2010-12-02T18:00:00Z,27.6010,-82.7510,12.6,1111122 
COMPS,ioos:station:USF.COMPS:EGK:1,2010-12-02T18:06:00Z,27.6010,-82.7510,12.8,1111122 
COMPS,ioos:station:USF.COMPS:EGK:1,2010-12-02T18:12:00Z,27.6010,-82.7510,12.85,1111122 
COMPS,ioos:station:USF.COMPS:EGK:1,2010-12-02T18:18:00Z,27.6010,-82.7510,13.0,1111122 
COMPS,ioos:station:USF.COMPS:EGK:1,2010-12-02T18:24:00Z,27.6010,-82.7510,12.98,1111122 
COMPS,ioos:station:USF.COMPS:EGK:1,2010-12-02T18:30:00Z,27.6010,-82.7510,13.15,1111122 
COMPS,ioos:station:USF.COMPS:EGK:1,2010-12-02T18:36:00Z,27.6010,-82.7510,13.19,1111122 
COMPS,ioos:station:USF.COMPS:EGK:1,2010-12-02T18:42:00Z,27.6010,-82.7510,13.38,1111122 
COMPS,ioos:station:USF.COMPS:EGK:1,2010-12-02T18:48:00Z,27.6010,-82.7510,13.49,1111122 
COMPS,ioos:station:USF.COMPS:EGK:1,2010-12-02T18:54:00Z,27.6010,-82.7510,13.59,1111122 
COMPS,ioos:station:USF.COMPS:EGK:1,2010-12-02T19:00:00Z,27.6010,-82.7510,13.6,1111122 
COMPS,ioos:station:USF.COMPS:EGK:1,2010-12-02T19:06:00Z,27.6010,-82.7510,13.86,1111122 
COMPS,ioos:station:USF.COMPS:EGK:1,2010-12-02T19:12:00Z,27.6010,-82.7510,13.91,1111122 
COMPS,ioos:station:USF.COMPS:EGK:1,2010-12-02T19:18:00Z,27.6010,-82.7510,14.02,1111122 
COMPS,ioos:station:USF.COMPS:EGK:1,2010-12-02T19:24:00Z,27.6010,-82.7510,14.05,1111122 
COMPS,ioos:station:USF.COMPS:EGK:1,2010-12-02T19:30:00Z,27.6010,-82.7510,14.15,1111122 
COMPS,ioos:station:USF.COMPS:EGK:1,2010-12-02T19:36:00Z,27.6010,-82.7510,14.21,1111122 
COMPS,ioos:station:USF.COMPS:EGK:1,2010-12-02T19:42:00Z,27.6010,-82.7510,14.31,1111122 
COMPS,ioos:station:USF.COMPS:EGK:1,2010-12-02T19:48:00Z,27.6010,-82.7510,14.33,1111122 
COMPS,ioos:station:USF.COMPS:EGK:1,2010-12-02T19:54:00Z,27.6010,-82.7510,14.4,1111122 
COMPS,ioos:station:USF.COMPS:EGK:1,2010-12-02T20:00:00Z,27.6010,-82.7510,14.4,1111122 
COMPS,ioos:station:USF.COMPS:EGK:1,2010-12-02T20:06:00Z,27.6010,-82.7510,14.25,1111122 
COMPS,ioos:station:USF.COMPS:EGK:1,2010-12-02T20:12:00Z,27.6010,-82.7510,14.26,1111122 
COMPS,ioos:station:USF.COMPS:EGK:1,2010-12-02T20:18:00Z,27.6010,-82.7510,14.01,1111122 
COMPS,ioos:station:USF.COMPS:EGK:1,2010-12-02T20:24:00Z,27.6010,-82.7510,13.96,1111122 
COMPS,ioos:station:USF.COMPS:EGK:1,2010-12-02T20:30:00Z,27.6010,-82.7510,13.98,1111122 
COMPS,ioos:station:USF.COMPS:EGK:1,2010-12-02T20:36:00Z,27.6010,-82.7510,14.09,1111122 
COMPS,ioos:station:USF.COMPS:EGK:1,2010-12-02T20:42:00Z,27.6010,-82.7510,14.15,1111122 
COMPS,ioos:station:USF.COMPS:EGK:1,2010-12-02T20:48:00Z,27.6010,-82.7510,14.14,1111122 
COMPS,ioos:station:USF.COMPS:EGK:1,2010-12-02T20:54:00Z,27.6010,-82.7510,14.19,1111122 
COMPS,ioos:station:USF.COMPS:EGK:1,2010-12-02T21:00:00Z,27.6010,-82.7510,14.2,1111122 
COMPS,ioos:station:USF.COMPS:EGK:1,2010-12-02T21:06:00Z,27.6010,-82.7510,14.31,1111122 
COMPS,ioos:station:USF.COMPS:EGK:1,2010-12-02T21:12:00Z,27.6010,-82.7510,14.33,1111122 
COMPS,ioos:station:USF.COMPS:EGK:1,2010-12-02T21:18:00Z,27.6010,-82.7510,14.36,1111122 
COMPS,ioos:station:USF.COMPS:EGK:1,2010-12-02T21:24:00Z,27.6010,-82.7510,14.37,1111122 
COMPS,ioos:station:USF.COMPS:EGK:1,2010-12-02T21:30:00Z,27.6010,-82.7510,14.32,1111122 
COMPS,ioos:station:USF.COMPS:EGK:1,2010-12-02T21:36:00Z,27.6010,-82.7510,14.38,1111122 
COMPS,ioos:station:USF.COMPS:EGK:1,2010-12-02T21:42:00Z,27.6010,-82.7510,14.32,1111122 
COMPS,ioos:station:USF.COMPS:EGK:1,2010-12-02T21:48:00Z,27.6010,-82.7510,14.42,1111122 